Location: Unspecified
(43.4680°N, 87.1740°E)
Time: 20:10:40
(UTC+00:00)

CZ-2C R/B - Pass Details

Date: 17 April 2021
Orbit: 668 x 784 km, 98.2° (Epoch: 11 May)

Event Time Altitude Azimuth Distance (km) Brightness Sun altitude
Rises 22:36:20 0° 6° (N) 3,071 6.1 -9.0°
Reaches altitude 10° 22:38:37 10° 1° (N) 2,165 5.2 -8.6°
Maximum altitude 22:43:07 45° 289° (WNW) 973 2.8 -7.9°
Drops below altitude 10° 22:47:44 10° 218° (SW) 2,219 4.4 -7.1°
Enters shadow 22:49:31 - 213° (SSW) 2,918 5.0 -6.8°
